| time (UTC) | temp C | wind direction | speed KPH | gust KPH | rain 1hr cm | rain 24hr cm | rain mn cm | humidity % | barometer mb |
| 20260906222803 | 13 | 96 | 0.0 | 0.0 | 0.00 | 0.00 | 0.00 | 83 | 1023.6 |
| 20260906222306 | 13 | 96 | 0.0 | 0.0 | 0.00 | 0.00 | 0.00 | 83 | 1023.6 |
| 20260906221804 | 13 | 96 | 0.0 | 0.0 | 0.00 | 0.00 | 0.00 | 83 | 1023.6 |
| 20260906220810 | 14 | 96 | 0.0 | 0.0 | 0.00 | 0.00 | 0.00 | 82 | 1023.5 |
| 20260906220304 | 14 | 96 | 0.0 | 0.0 | 0.00 | 0.00 | 0.00 | 82 | 1023.5 |
| 20260906215803 | 14 | 96 | 0.0 | 0.0 | 0.00 | 0.00 | 0.00 | 82 | 1023.8 |
| 20260906215306 | 14 | 96 | 0.0 | 0.0 | 0.00 | 0.00 | 0.00 | 83 | 1023.8 |
| 20260906214804 | 14 | 96 | 0.0 | 0.0 | 0.00 | 0.00 | 0.00 | 83 | 1023.8 |
| 20260906213803 | 14 | 96 | 0.0 | 0.0 | 0.00 | 0.00 | 0.00 | 83 | 1023.8 |
| 20260906213303 | 14 | 96 | 0.0 | 0.0 | 0.00 | 0.00 | 0.00 | 84 | 1023.8 |
| 20260906212804 | 14 | 96 | 0.0 | 0.0 | 0.00 | 0.00 | 0.00 | 82 | 1023.8 |
| 20260906212306 | 14 | 96 | 0.0 | 0.0 | 0.00 | 0.00 | 0.00 | 83 | 1023.8 |
| 20260906211804 | 14 | 96 | 0.0 | 0.0 | 0.00 | 0.00 | 0.00 | 84 | 1023.8 |
| 20260906210803 | 13 | 96 | 0.0 | 0.0 | 0.00 | 0.00 | 0.00 | 83 | 1023.8 |
| 20260906210304 | 13 | 96 | 0.0 | 0.0 | 0.00 | 0.00 | 0.00 | 83 | 1023.8 |
| 20260906205803 | 13 | 96 | 0.0 | 0.0 | 0.00 | 0.00 | 0.00 | 84 | 1023.8 |
| 20260906204803 | 14 | 96 | 0.0 | 0.0 | 0.00 | 0.00 | 0.00 | 83 | 1023.8 |
| 20260906202803 | 15 | 96 | 0.0 | 0.0 | 0.00 | 0.00 | 0.00 | 81 | 1023.8 |
| 20260906201804 | 15 | 96 | 0.0 | 0.0 | 0.00 | 0.00 | 0.00 | 80 | 1023.7 |
| 20260906201303 | 15 | 96 | 0.0 | 0.0 | 0.00 | 0.00 | 0.00 | 80 | 1023.9 |
| 20260906200803 | 15 | 96 | 0.0 | 0.0 | 0.00 | 0.00 | 0.00 | 80 | 1023.9 |
| 20260906200303 | 15 | 96 | 0.0 | 0.0 | 0.00 | 0.00 | 0.00 | 80 | 1023.9 |
| 20260906195804 | 15 | 96 | 0.0 | 0.0 | 0.00 | 0.00 | 0.00 | 80 | 1023.9 |
| 20260906195306 | 15 | 96 | 0.0 | 0.0 | 0.00 | 0.00 | 0.00 | 80 | 1023.9 |
| 20260906194804 | 15 | 96 | 0.0 | 0.0 | 0.00 | 0.00 | 0.00 | 81 | 1023.9 |
| 20260906193804 | 15 | 96 | 0.0 | 0.0 | 0.00 | 0.00 | 0.00 | 80 | 1023.6 |
| 20260906193304 | 16 | 96 | 0.0 | 0.0 | 0.00 | 0.00 | 0.00 | 80 | 1023.6 |
| 20260906192803 | 16 | 96 | 0.0 | 0.0 | 0.00 | 0.00 | 0.00 | 79 | 1023.6 |
| 20260906192307 | 16 | 96 | 0.0 | 0.0 | 0.00 | 0.00 | 0.00 | 79 | 1023.6 |
| 20260906191804 | 16 | 96 | 0.0 | 0.0 | 0.00 | 0.00 | 0.00 | 79 | 1023.6 |
| 20260906191303 | 16 | 96 | 0.0 | 0.0 | 0.00 | 0.00 | 0.00 | 78 | 1023.6 |
| 20260906190803 | 16 | 96 | 0.0 | 0.0 | 0.00 | 0.00 | 0.00 | 77 | 1023.6 |
| 20260906190304 | 17 | 96 | 0.0 | 0.0 | 0.00 | 0.00 | 0.00 | 77 | 1023.6 |
| 20260906185804 | 17 | 96 | 0.0 | 0.0 | 0.00 | 0.00 | 0.00 | 76 | 1023.4 |
| 20260906184803 | 17 | 96 | 0.0 | 0.0 | 0.00 | 0.00 | 0.00 | 74 | 1023.4 |
| 20260906183804 | 18 | 96 | 0.0 | 0.0 | 0.00 | 0.00 | 0.00 | 72 | 1023.4 |
| 20260906183303 | 18 | 96 | 0.0 | 0.0 | 0.00 | 0.00 | 0.00 | 69 | 1023.4 |
| 20260906182803 | 18 | 96 | 0.0 | 0.0 | 0.00 | 0.00 | 0.00 | 67 | 1023.4 |
| 20260906182306 | 19 | 96 | 0.0 | 0.0 | 0.00 | 0.00 | 0.00 | 64 | 1023.4 |
| 20260906181804 | 20 | 96 | 0.0 | 0.0 | 0.00 | 0.00 | 0.00 | 63 | 1023.4 |
| 20260906181304 | 20 | 96 | 0.0 | 0.0 | 0.00 | 0.00 | 0.00 | 63 | 1023.4 |
| 20260906180804 | 20 | 96 | 0.0 | 0.0 | 0.00 | 0.00 | 0.00 | 62 | 1023.4 |
| 20260906175804 | 21 | 90 | 0.0 | 0.0 | 0.00 | 0.00 | 0.00 | 61 | 1023.5 |
| 20260906174803 | 22 | 90 | 0.0 | 0.0 | 0.00 | 0.00 | 0.00 | 59 | 1023.5 |
| 20260906174303 | 22 | 87 | 0.0 | 0.0 | 0.00 | 0.00 | 0.00 | 59 | 1023.5 |
| 20260906173304 | 22 | 66 | 0.0 | 4.8 | 0.00 | 0.00 | 0.00 | 58 | 1023.5 |
| 20260906172803 | 22 | 54 | 0.0 | 0.0 | 0.00 | 0.00 | 0.00 | 58 | 1023.5 |
| 20260906172306 | 23 | 53 | 0.0 | 0.0 | 0.00 | 0.00 | 0.00 | 56 | 1023.5 |
| 20260906171803 | 23 | 69 | 0.0 | 1.6 | 0.00 | 0.00 | 0.00 | 56 | 1023.5 |
| 20260906171304 | 23 | 70 | 0.0 | 0.0 | 0.00 | 0.00 | 0.00 | 56 | 1023.5 |
| 20260906170804 | 23 | 71 | 0.0 | 0.0 | 0.00 | 0.00 | 0.00 | 53 | 1023.5 |
| 20260906170304 | 23 | 70 | 0.0 | 1.6 | 0.00 | 0.00 | 0.00 | 52 | 1023.5 |
| 20260906165804 | 24 | 71 | 0.0 | 0.0 | 0.00 | 0.00 | 0.00 | 52 | 1023.5 |
| 20260906165306 | 24 | 71 | 0.0 | 1.6 | 0.00 | 0.00 | 0.00 | 49 | 1023.5 |
| 20260906164803 | 25 | 50 | 0.0 | 0.0 | 0.00 | 0.00 | 0.00 | 50 | 1023.5 |
| 20260906164303 | 25 | 49 | 0.0 | 0.0 | 0.00 | 0.00 | 0.00 | 50 | 1023.5 |
| 20260906163804 | 25 | 67 | 0.0 | 8.0 | 0.00 | 0.00 | 0.00 | 47 | 1023.5 |
| 20260906163304 | 25 | 94 | 0.0 | 0.0 | 0.00 | 0.00 | 0.00 | 47 | 1023.5 |
| 20260906161804 | 26 | 90 | 0.0 | 0.0 | 0.00 | 0.00 | 0.00 | 43 | 1023.5 |
| 20260906161304 | 26 | 56 | 0.0 | 1.6 | 0.00 | 0.00 | 0.00 | 43 | 1023.5 |
| 20260906160804 | 27 | 154 | 0.0 | 1.6 | 0.00 | 0.00 | 0.00 | 41 | 1023.5 |
| 20260906160303 | 27 | 139 | 0.0 | 4.8 | 0.00 | 0.00 | 0.00 | 41 | 1023.5 |
| 20260906155803 | 27 | 42 | 0.0 | 3.2 | 0.00 | 0.00 | 0.00 | 41 | 1023.5 |
| 20260906155306 | 27 | 23 | 0.0 | 3.2 | 0.00 | 0.00 | 0.00 | 40 | 1023.5 |
| 20260906154303 | 27 | 53 | 1.6 | 8.0 | 0.00 | 0.00 | 0.00 | 39 | 1023.5 |
| 20260906153304 | 27 | 97 | 1.6 | 3.2 | 0.00 | 0.00 | 0.00 | 40 | 1023.7 |
| 20260906152804 | 27 | 44 | 0.0 | 3.2 | 0.00 | 0.00 | 0.00 | 39 | 1023.7 |
| 20260906152306 | 27 | 100 | 0.0 | 0.0 | 0.00 | 0.00 | 0.00 | 41 | 1023.7 |
| 20260906151804 | 27 | 170 | 0.0 | 3.2 | 0.00 | 0.00 | 0.00 | 41 | 1023.7 |
| 20260906151303 | 27 | 65 | 1.6 | 8.0 | 0.00 | 0.00 | 0.00 | 40 | 1023.7 |
| 20260906150804 | 27 | 90 | 0.0 | 1.6 | 0.00 | 0.00 | 0.00 | 41 | 1023.7 |
| 20260906150304 | 27 | 30 | 0.0 | 3.2 | 0.00 | 0.00 | 0.00 | 41 | 1024.3 |
| 20260906145804 | 27 | 91 | 0.0 | 4.8 | 0.00 | 0.00 | 0.00 | 42 | 1024.3 |
| 20260906145306 | 27 | 106 | 1.6 | 9.7 | 0.00 | 0.00 | 0.00 | 42 | 1024.3 |
| 20260906143803 | 26 | 55 | 0.0 | 1.6 | 0.00 | 0.00 | 0.00 | 41 | 1024.3 |
| 20260906142804 | 28 | 61 | 0.0 | 8.0 | 0.00 | 0.00 | 0.00 | 39 | 1024.3 |
| 20260906142306 | 27 | 24 | 0.0 | 0.0 | 0.00 | 0.00 | 0.00 | 38 | 1024.3 |
| 20260906141804 | 27 | 36 | 0.0 | 0.0 | 0.00 | 0.00 | 0.00 | 40 | 1024.3 |
| 20260906140804 | 26 | 52 | 0.0 | 1.6 | 0.00 | 0.00 | 0.00 | 43 | 1024.3 |
| 20260906140303 | 26 | 343 | 0.0 | 1.6 | 0.00 | 0.00 | 0.00 | 39 | 1024.3 |
| 20260906135803 | 27 | 5 | 0.0 | 1.6 | 0.00 | 0.00 | 0.00 | 38 | 1024.7 |
| 20260906135306 | 28 | 53 | 0.0 | 4.8 | 0.00 | 0.00 | 0.00 | 34 | 1024.7 |
| 20260906134803 | 28 | 88 | 0.0 | 0.0 | 0.00 | 0.00 | 0.00 | 33 | 1024.7 |
| 20260906134304 | 28 | 163 | 0.0 | 1.6 | 0.00 | 0.00 | 0.00 | 34 | 1024.7 |
| 20260906133804 | 28 | 75 | 0.0 | 3.2 | 0.00 | 0.00 | 0.00 | 37 | 1024.7 |
| 20260906133304 | 28 | 312 | 0.0 | 4.8 | 0.00 | 0.00 | 0.00 | 34 | 1024.9 |
| 20260906132803 | 27 | 57 | 1.6 | 8.0 | 0.00 | 0.00 | 0.00 | 36 | 1024.9 |
| 20260906132306 | 27 | 112 | 0.0 | 3.2 | 0.00 | 0.00 | 0.00 | 33 | 1025.3 |
| 20260906131804 | 27 | 168 | 0.0 | 3.2 | 0.00 | 0.00 | 0.00 | 32 | 1025.3 |
| 20260906131304 | 27 | 170 | 0.0 | 1.6 | 0.00 | 0.00 | 0.00 | 36 | 1025.3 |
| 20260906130804 | 27 | 133 | 0.0 | 0.0 | 0.00 | 0.00 | 0.00 | 34 | 1025.3 |
| 20260906125804 | 27 | 325 | 1.6 | 8.0 | 0.00 | 0.00 | 0.00 | 36 | 1025.3 |
| 20260906124804 | 27 | 328 | 1.6 | 4.8 | 0.00 | 0.00 | 0.00 | 38 | 1025.3 |
| 20260906123803 | 27 | 101 | 0.0 | 3.2 | 0.00 | 0.00 | 0.00 | 41 | 1025.4 |
| 20260906122803 | 27 | 172 | 0.0 | 4.8 | 0.00 | 0.00 | 0.00 | 38 | 1025.5 |
| 20260906122306 | 26 | 128 | 0.0 | 8.0 | 0.00 | 0.00 | 0.00 | 42 | 1026.1 |
| 20260906121803 | 26 | 134 | 1.6 | 4.8 | 0.00 | 0.00 | 0.00 | 39 | 1026.1 |
| 20260906121304 | 26 | 121 | 0.0 | 3.2 | 0.00 | 0.00 | 0.00 | 38 | 1026.1 |
| 20260906120804 | 26 | 77 | 0.0 | 3.2 | 0.00 | 0.00 | 0.00 | 42 | 1026.1 |
| 20260906120304 | 26 | 7 | 0.0 | 1.6 | 0.00 | 0.00 | 0.00 | 44 | 1026.1 |
| 20260906115306 | 26 | 5 | 0.0 | 1.6 | 0.00 | 0.00 | 0.00 | 44 | 1026.1 |
| 20260906114803 | 26 | 179 | 0.0 | 3.2 | 0.00 | 0.00 | 0.00 | 43 | 1026.1 |
| 20260906113803 | 26 | 270 | 0.0 | 0.0 | 0.00 | 0.00 | 0.00 | 45 | 1026.1 |
| 20260906113304 | 26 | 163 | 0.0 | 1.6 | 0.00 | 0.00 | 0.00 | 42 | 1026.1 |
| 20260906112804 | 26 | 153 | 0.0 | 4.8 | 0.00 | 0.00 | 0.00 | 42 | 1026.1 |
| 20260906112306 | 26 | 74 | 0.0 | 3.2 | 0.00 | 0.00 | 0.00 | 45 | 1026.2 |
| 20260906111304 | 26 | 245 | 0.0 | 1.6 | 0.00 | 0.00 | 0.00 | 46 | 1026.2 |
| 20260906110804 | 26 | 234 | 0.0 | 4.8 | 0.00 | 0.00 | 0.00 | 46 | 1026.6 |
| 20260906110304 | 25 | 104 | 0.0 | 3.2 | 0.00 | 0.00 | 0.00 | 48 | 1026.6 |
| 20260906105803 | 25 | 202 | 0.0 | 4.8 | 0.00 | 0.00 | 0.00 | 46 | 1026.6 |
| 20260906105306 | 25 | 200 | 0.0 | 1.6 | 0.00 | 0.00 | 0.00 | 44 | 1026.6 |
| 20260906104804 | 25 | 202 | 0.0 | 1.6 | 0.00 | 0.00 | 0.00 | 47 | 1026.6 |
| 20260906103304 | 25 | 107 | 0.0 | 0.0 | 0.00 | 0.00 | 0.00 | 53 | 1026.6 |
| 20260906102804 | 24 | 46 | 0.0 | 0.0 | 0.00 | 0.00 | 0.00 | 51 | 1026.6 |
| 20260906102306 | 24 | 83 | 0.0 | 1.6 | 0.00 | 0.00 | 0.00 | 50 | 1026.8 |
| 20260906101803 | 24 | 30 | 0.0 | 1.6 | 0.00 | 0.00 | 0.00 | 52 | 1026.8 |
| 20260906101303 | 24 | 127 | 0.0 | 0.0 | 0.00 | 0.00 | 0.00 | 53 | 1027.1 |
| 20260906100804 | 23 | 167 | 0.0 | 1.6 | 0.00 | 0.00 | 0.00 | 51 | 1027.1 |
| 20260906100304 | 23 | 129 | 0.0 | 0.0 | 0.00 | 0.00 | 0.00 | 50 | 1027.2 |
| 20260906095804 | 23 | 162 | 0.0 | 1.6 | 0.00 | 0.00 | 0.00 | 55 | 1027.3 |
| 20260906095306 | 23 | 167 | 0.0 | 3.2 | 0.00 | 0.00 | 0.00 | 57 | 1027.3 |
| 20260906094804 | 23 | 152 | 0.0 | 8.0 | 0.00 | 0.00 | 0.00 | 56 | 1027.3 |
| 20260906094303 | 23 | 108 | 0.0 | 3.2 | 0.00 | 0.00 | 0.00 | 54 | 1027.4 |
| 20260906093804 | 23 | 156 | 0.0 | 3.2 | 0.00 | 0.00 | 0.00 | 55 | 1027.4 |
| 20260906093304 | 22 | 153 | 0.0 | 3.2 | 0.00 | 0.00 | 0.00 | 58 | 1027.4 |
| 20260906092804 | 22 | 119 | 1.6 | 4.8 | 0.00 | 0.00 | 0.00 | 60 | 1027.5 |
| 20260906092306 | 21 | 227 | 4.8 | 11.3 | 0.00 | 0.00 | 0.00 | 57 | 1027.5 |
| 20260906091803 | 21 | 184 | 1.6 | 8.0 | 0.00 | 0.00 | 0.00 | 59 | 1027.5 |
| 20260906091304 | 21 | 207 | 0.0 | 3.2 | 0.00 | 0.00 | 0.00 | 63 | 1027.5 |
| 20260906085804 | 20 | 158 | 0.0 | 0.0 | 0.00 | 0.00 | 0.00 | 66 | 1027.5 |
| 20260906084804 | 19 | 48 | 0.0 | 3.2 | 0.00 | 0.00 | 0.00 | 68 | 1027.5 |
| 20260906084303 | 18 | 94 | 0.0 | 0.0 | 0.00 | 0.00 | 0.00 | 70 | 1027.8 |
| 20260906083804 | 18 | 195 | 0.0 | 0.0 | 0.00 | 0.00 | 0.00 | 72 | 1027.8 |
| 20260906083304 | 18 | 196 | 0.0 | 0.0 | 0.00 | 0.00 | 0.00 | 73 | 1027.8 |
| 20260906082803 | 17 | 202 | 0.0 | 3.2 | 0.00 | 0.00 | 0.00 | 73 | 1027.8 |
| 20260906082306 | 17 | 193 | 0.0 | 0.0 | 0.00 | 0.00 | 0.00 | 75 | 1027.8 |
| 20260906081803 | 17 | 171 | 0.0 | 0.0 | 0.00 | 0.00 | 0.00 | 75 | 1027.8 |
| 20260906081304 | 16 | 171 | 0.0 | 1.6 | 0.00 | 0.00 | 0.00 | 76 | 1027.8 |
| 20260906080804 | 16 | 171 | 0.0 | 0.0 | 0.00 | 0.00 | 0.00 | 76 | 1027.8 |
| 20260906080303 | 16 | 172 | 0.0 | 0.0 | 0.00 | 0.00 | 0.00 | 79 | 1028.2 |
| 20260906075804 | 16 | 172 | 0.0 | 0.0 | 0.00 | 0.00 | 0.00 | 80 | 1028.2 |
| 20260906075306 | 15 | 172 | 0.0 | 0.0 | 0.00 | 0.00 | 0.00 | 80 | 1028.2 |
| 20260906074804 | 15 | 172 | 0.0 | 0.0 | 0.00 | 0.00 | 0.00 | 81 | 1028.2 |
| 20260906074303 | 15 | 171 | 0.0 | 0.0 | 0.00 | 0.00 | 0.00 | 82 | 1028.2 |
| 20260906073803 | 15 | 170 | 0.0 | 0.0 | 0.00 | 0.00 | 0.00 | 81 | 1028.2 |
| 20260906073304 | 15 | 173 | 0.0 | 0.0 | 0.00 | 0.00 | 0.00 | 84 | 1028.1 |
| 20260906072803 | 14 | 173 | 0.0 | 1.6 | 0.00 | 0.00 | 0.00 | 84 | 1028.2 |
| 20260906072306 | 14 | 71 | 0.0 | 0.0 | 0.00 | 0.00 | 0.00 | 86 | 1028.2 |
| 20260906071804 | 13 | 173 | 0.0 | 1.6 | 0.00 | 0.00 | 0.00 | 86 | 1028.2 |
| 20260906071304 | 13 | 70 | 0.0 | 0.0 | 0.00 | 0.00 | 0.00 | 86 | 1028.2 |
| 20260906070803 | 13 | 70 | 0.0 | 0.0 | 0.00 | 0.00 | 0.00 | 86 | 1028.2 |
| 20260906070304 | 13 | 70 | 0.0 | 0.0 | 0.00 | 0.00 | 0.00 | 88 | 1028.2 |
| 20260906065804 | 13 | 136 | 0.0 | 0.0 | 0.00 | 0.00 | 0.00 | 88 | 1028.2 |
| 20260906065305 | 12 | 136 | 0.0 | 0.0 | 0.00 | 0.00 | 0.00 | 90 | 1028.2 |
| 20260906064804 | 12 | 136 | 0.0 | 0.0 | 0.00 | 0.00 | 0.00 | 91 | 1028.2 |
| 20260906064304 | 12 | 136 | 0.0 | 0.0 | 0.00 | 0.00 | 0.00 | 92 | 1028.2 |
| 20260906063804 | 12 | 136 | 0.0 | 0.0 | 0.00 | 0.00 | 0.00 | 93 | 1028.2 |
| 20260906063303 | 11 | 136 | 0.0 | 0.0 | 0.00 | 0.00 | 0.00 | 94 | 1028.2 |
| 20260906062803 | 11 | 136 | 0.0 | 0.0 | 0.00 | 0.00 | 0.00 | 95 | 1028.2 |
| 20260906062306 | 11 | 136 | 0.0 | 0.0 | 0.00 | 0.00 | 0.00 | 96 | 1028.2 |
| 20260906061803 | 11 | 136 | 0.0 | 0.0 | 0.00 | 0.00 | 0.00 | 97 | 1028.2 |
| 20260906060803 | 10 | 38 | 0.0 | 0.0 | 0.00 | 0.00 | 0.00 | 99 | 1028.2 |
| 20260906060304 | 10 | 38 | 0.0 | 0.0 | 0.00 | 0.00 | 0.00 | 99 | 1028.2 |
| 20260906055803 | 10 | 38 | 0.0 | 0.0 | 0.00 | 0.00 | 0.00 | 99 | 1028.2 |
| 20260906055306 | 10 | 304 | 0.0 | 0.0 | 0.00 | 0.00 | 0.00 | 100 | 1028.2 |
| 20260906054803 | 10 | 304 | 0.0 | 0.0 | 0.00 | 0.00 | 0.00 | 100 | 1028.2 |
| 20260906054303 | 9 | 304 | 0.0 | 0.0 | 0.00 | 0.00 | 0.00 | 100 | 1027.8 |
| 20260906053303 | 8 | 304 | 0.0 | 0.0 | 0.00 | 0.00 | 0.00 | 100 | 1027.8 |
| 20260906052803 | 8 | 304 | 0.0 | 0.0 | 0.00 | 0.00 | 0.00 | 100 | 1027.8 |
| 20260906051803 | 8 | 304 | 0.0 | 0.0 | 0.00 | 0.00 | 0.00 | 100 | 1027.8 |
| 20260906051304 | 8 | 304 | 0.0 | 0.0 | 0.00 | 0.00 | 0.00 | 100 | 1027.8 |
| 20260906050803 | 8 | 304 | 0.0 | 0.0 | 0.00 | 0.00 | 0.00 | 100 | 1027.8 |
| 20260906045804 | 8 | 304 | 0.0 | 0.0 | 0.00 | 0.00 | 0.00 | 100 | 1027.8 |
| 20260906044803 | 8 | 304 | 0.0 | 0.0 | 0.00 | 0.00 | 0.00 | 100 | 1027.8 |
| 20260906044303 | 8 | 304 | 0.0 | 0.0 | 0.00 | 0.00 | 0.00 | 100 | 1027.8 |
| 20260906043803 | 8 | 304 | 0.0 | 0.0 | 0.00 | 0.00 | 0.00 | 100 | 1027.8 |
| 20260906042804 | 8 | 304 | 0.0 | 0.0 | 0.00 | 0.00 | 0.00 | 100 | 1027.8 |
| 20260906042306 | 8 | 304 | 0.0 | 0.0 | 0.00 | 0.00 | 0.00 | 100 | 1027.7 |
| 20260906041804 | 8 | 304 | 0.0 | 0.0 | 0.00 | 0.00 | 0.00 | 100 | 1027.7 |
| 20260906041304 | 8 | 304 | 0.0 | 0.0 | 0.00 | 0.00 | 0.00 | 100 | 1027.7 |
| 20260906040804 | 8 | 304 | 0.0 | 0.0 | 0.00 | 0.00 | 0.00 | 100 | 1027.7 |
| 20260906040303 | 8 | 304 | 0.0 | 0.0 | 0.00 | 0.00 | 0.00 | 100 | 1027.7 |
| 20260906035804 | 8 | 304 | 0.0 | 0.0 | 0.00 | 0.00 | 0.00 | 100 | 1027.6 |
| 20260906035306 | 8 | 304 | 0.0 | 0.0 | 0.00 | 0.05 | 0.00 | 100 | 1027.6 |
| 20260906034804 | 8 | 304 | 0.0 | 0.0 | 0.00 | 0.08 | 0.00 | 100 | 1027.6 |
| 20260906034304 | 8 | 304 | 0.0 | 0.0 | 0.00 | 0.13 | 0.00 | 100 | 1027.6 |
| 20260906033804 | 8 | 304 | 0.0 | 0.0 | 0.00 | 0.15 | 0.00 | 100 | 1027.6 |
| 20260906033304 | 8 | 304 | 0.0 | 0.0 | 0.00 | 0.15 | 0.00 | 100 | 1027.6 |
| 20260906032803 | 8 | 304 | 0.0 | 0.0 | 0.00 | 0.18 | 0.00 | 99 | 1027.5 |
| 20260906032306 | 9 | 304 | 0.0 | 0.0 | 0.00 | 0.20 | 0.00 | 99 | 1027.5 |
| 20260906031803 | 9 | 304 | 0.0 | 0.0 | 0.00 | 0.25 | 0.00 | 99 | 1027.5 |
| 20260906031304 | 9 | 304 | 0.0 | 0.0 | 0.00 | 0.33 | 0.00 | 99 | 1027.5 |
| 20260906030804 | 9 | 304 | 0.0 | 0.0 | 0.00 | 0.36 | 0.00 | 99 | 1027.5 |
| 20260906030303 | 9 | 304 | 0.0 | 0.0 | 0.00 | 0.43 | 0.00 | 99 | 1027.5 |
| 20260906024804 | 9 | 304 | 0.0 | 0.0 | 0.00 | 0.61 | 0.00 | 100 | 1027.5 |
| 20260906024304 | 9 | 304 | 0.0 | 0.0 | 0.00 | 0.61 | 0.00 | 99 | 1027.5 |
| 20260906023804 | 9 | 304 | 0.0 | 0.0 | 0.00 | 0.66 | 0.00 | 99 | 1027.3 |
| 20260906023304 | 9 | 304 | 0.0 | 0.0 | 0.00 | 0.84 | 0.00 | 99 | 1027.3 |
| 20260906021803 | 9 | 304 | 0.0 | 0.0 | 0.00 | 1.12 | 0.00 | 99 | 1027.3 |
| 20260906021303 | 9 | 304 | 0.0 | 0.0 | 0.00 | 1.17 | 0.00 | 99 | 1027.3 |
| 20260906020803 | 9 | 304 | 0.0 | 0.0 | 0.00 | 1.24 | 0.00 | 99 | 1027.3 |
| 20260906020304 | 10 | 304 | 0.0 | 0.0 | 0.00 | 1.32 | 0.00 | 99 | 1027.2 |
| 20260906015804 | 10 | 304 | 0.0 | 0.0 | 0.00 | 1.35 | 0.00 | 99 | 1027.2 |
| 20260906015306 | 10 | 304 | 0.0 | 0.0 | 0.00 | 1.35 | 0.00 | 99 | 1027.2 |
| 20260906014804 | 10 | 304 | 0.0 | 0.0 | 0.00 | 1.35 | 0.00 | 98 | 1027.2 |
| 20260906014303 | 10 | 304 | 0.0 | 0.0 | 0.00 | 1.35 | 0.00 | 98 | 1027.2 |
| 20260906013803 | 10 | 304 | 0.0 | 0.0 | 0.00 | 1.35 | 0.00 | 99 | 1027.4 |
| 20260906013305 | 10 | 304 | 0.0 | 0.0 | 0.00 | 1.35 | 0.00 | 98 | 1027.4 |
| 20260906012804 | 10 | 304 | 0.0 | 0.0 | 0.00 | 1.35 | 0.00 | 98 | 1027.4 |
| 20260906012306 | 10 | 304 | 0.0 | 0.0 | 0.00 | 1.35 | 0.00 | 99 | 1027.4 |
| 20260906011803 | 10 | 304 | 0.0 | 0.0 | 0.00 | 1.35 | 0.00 | 99 | 1027.4 |
| 20260906011303 | 10 | 304 | 0.0 | 0.0 | 0.00 | 1.35 | 0.00 | 98 | 1027.4 |
| 20260906010804 | 10 | 304 | 0.0 | 0.0 | 0.00 | 1.35 | 0.00 | 98 | 1027.2 |
| 20260906010304 | 10 | 304 | 0.0 | 0.0 | 0.00 | 1.35 | 0.00 | 98 | 1027.2 |
| 20260906005804 | 10 | 304 | 0.0 | 0.0 | 0.00 | 1.35 | 0.00 | 98 | 1027.2 |
| 20260906005306 | 10 | 304 | 0.0 | 0.0 | 0.00 | 1.35 | 0.00 | 98 | 1027.2 |
| 20260906004804 | 10 | 304 | 0.0 | 0.0 | 0.00 | 1.35 | 0.00 | 98 | 1027.2 |
| 20260906004304 | 10 | 304 | 0.0 | 0.0 | 0.00 | 1.35 | 0.00 | 98 | 1026.7 |
| 20260906003803 | 10 | 304 | 0.0 | 0.0 | 0.00 | 1.35 | 0.00 | 98 | 1026.7 |
| 20260906003304 | 10 | 304 | 0.0 | 0.0 | 0.00 | 1.35 | 0.00 | 97 | 1026.7 |
| 20260906002803 | 10 | 304 | 0.0 | 0.0 | 0.00 | 1.35 | 0.00 | 98 | 1026.7 |
| 20260906001804 | 10 | 304 | 0.0 | 0.0 | 0.00 | 1.35 | 0.00 | 97 | 1026.7 |
| 20260906001303 | 10 | 304 | 0.0 | 0.0 | 0.00 | 1.35 | 0.00 | 97 | 1026.7 |
| 20260906000803 | 10 | 304 | 0.0 | 0.0 | 0.00 | 1.35 | 0.00 | 97 | 1026.7 |
| 20260906000304 | 10 | 304 | 0.0 | 0.0 | 0.00 | 1.35 | 0.00 | 96 | 1026.7 |
| 20260905235804 | 11 | 304 | 0.0 | 0.0 | 0.00 | 1.35 | 0.00 | 97 | 1026.7 |
| 20260905235306 | 11 | 304 | 0.0 | 0.0 | 0.00 | 1.35 | 0.00 | 96 | 1026.7 |
| 20260905234803 | 11 | 304 | 0.0 | 0.0 | 0.00 | 1.35 | 0.00 | 96 | 1026.7 |
| 20260905234304 | 11 | 304 | 0.0 | 0.0 | 0.00 | 1.35 | 0.00 | 96 | 1026.7 |
| 20260905233804 | 11 | 304 | 0.0 | 0.0 | 0.00 | 1.35 | 0.00 | 96 | 1026.7 |
| 20260905233304 | 11 | 304 | 0.0 | 0.0 | 0.00 | 1.35 | 0.00 | 96 | 1026.7 |
| 20260905232804 | 11 | 304 | 0.0 | 0.0 | 0.00 | 1.35 | 0.00 | 96 | 1026.7 |
| 20260905231803 | 11 | 304 | 0.0 | 0.0 | 0.00 | 1.35 | 0.00 | 96 | 1026.7 |
| 20260905231303 | 11 | 304 | 0.0 | 0.0 | 0.00 | 1.35 | 0.00 | 95 | 1026.7 |
| 20260905230803 | 11 | 304 | 0.0 | 0.0 | 0.00 | 1.35 | 0.00 | 95 | 1026.7 |
| 20260905225804 | 11 | 304 | 0.0 | 0.0 | 0.00 | 1.35 | 0.00 | 95 | 1026.5 |
| 20260905225306 | 11 | 304 | 0.0 | 0.0 | 0.00 | 1.35 | 0.00 | 95 | 1026.5 |
| 20260905224804 | 11 | 304 | 0.0 | 0.0 | 0.00 | 1.35 | 0.00 | 94 | 1026.3 |
| 20260905224304 | 11 | 304 | 0.0 | 0.0 | 0.00 | 1.35 | 0.00 | 92 | 1026.3 |
| 20260905223803 | 11 | 304 | 0.0 | 0.0 | 0.00 | 1.35 | 0.00 | 92 | 1026.3 |
| 20260905223303 | 11 | 304 | 0.0 | 0.0 | 0.00 | 1.35 | 0.00 | 91 | 1026.3 |